GEFSNGP_850_meantemp_000.txt.gz
Temperature
23 23 23 23 23 23 22 21 21 21 22 22 23 23 22 21 20 19 18 18 17 16 15 14 13 13 13 12 12 12 12 12 12 12 12 11 12 12 12 11 11 11 11 11
21 22 23 22 23 23 22 22 22 22 22 23 23 22 21 20 20 19 19 18 17 16 15 14 14 13 13 12 12 12 12 12 12 12 12 12 12 12 11 11 11 11 11 11
22 22 21 21 23 23 22 23 22 22 22 23 22 21 21 20 20 19 19 18 17 16 15 14 14 13 13 13 12 12 12 12 12 12 12 12 12 12 11 12 11 11 11 11
22 21 20 23 23 22 22 22 22 22 22 22 21 20 20 19 18 19 18 17 16 16 15 14 13 13 13 12 13 12 12 12 12 12 12 11 12 12 12 11 11 11 11 11
22 21 21 22 22 22 21 20 22 22 21 21 20 20 21 20 18 18 18 17 16 15 15 14 13 13 13 13 12 12 12 12 12 12 12 12 12 12 12 12 11 11 11 12
21 19 20 21 21 20 20 20 21 20 20 20 20 20 21 20 18 18 17 16 15 15 14 14 13 13 13 12 12 12 12 12 12 12 12 12 12 12 11 12 12 11 11 11
19 19 21 21 20 20 18 19 18 18 19 18 19 19 19 19 18 17 16 16 15 14 13 13 12 12 12 12 12 12 12 11 11 11 11 11 11 11 11 11 10 10 10 11
19 18 17 19 19 17 17 18 18 18 18 18 18 18 19 19 19 16 15 15 16 14 13 12 12 12 11 12 12 12 12 11 11 11 11 11 10 10 10 10 10 10 10 10
19 19 19 18 17 16 15 15 16 16 17 17 18 18 18 19 19 18 16 15 15 14 13 12 12 11 12 12 11 11 11 11 10 11 11 11 10 10 10 10 10 10 10 10
16 17 17 16 16 14 13 13 13 13 14 15 16 17 17 18 18 18 17 15 14 14 13 12 12 11 12 12 11 11 11 10 10 10 10 10 11 10 10 10 10 10 10 9
15 15 13 15 13 13 12 11 11 11 12 13 13 14 15 16 16 17 16 16 15 14 13 13 12 12 11 12 11 11 10 10 10 11 10 10 11 10 10 11 11 10 10 10
11 11 11 10 10 10 10 10 10 11 12 12 12 12 12 12 13 14 15 15 15 14 13 13 12 12 11 11 11 11 11 11 11 11 11 10 10 10 10 10 10 10 9 9
11 11 11 10 10 10 10 10 10 10 10 11 11 11 11 11 10 11 12 14 15 14 13 13 12 12 11 11 11 10 11 11 11 11 11 11 10 10 9 9 9 9 9 9
10 9 9 9 9 10 10 10 10 10 10 11 10 10 10 11 10 9 10 12 13 13 13 13 12 12 12 11 10 10 10 11 11 10 11 11 10 10 10 9 9 9 8 8
9 9 9 9 9 9 9 9 8 8 9 9 9 9 9 10 10 9 8 9 11 13 13 13 13 12 11 11 10 10 10 10 10 11 11 11 10 10 10 9 9 9 8 8
8 8 9 9 9 8 8 8 8 7 7 7 7 7 7 8 9 9 9 10 9 11 12 13 12 12 11 11 10 10 11 10 10 10 11 10 10 10 9 9 8 8 8 8
8 8 8 8 8 7 7 7 7 7 7 7 7 7 7 7 8 9 9 10 9 10 11 12 13 13 13 11 10 11 11 10 9 10 10 10 11 9 8 8 8 9 9 9
8 8 8 8 7 7 7 7 7 7 7 7 7 7 7 7 7 8 8 8 9 9 10 11 12 13 13 11 11 12 11 11 9 10 11 10 10 10 10 9 10 10 10 10
8 8 8 8 7 7 7 7 6 6 5 6 6 6 7 7 7 7 7 7 7 8 9 10 11 11 12 11 11 12 11 11 10 10 11 10 10 10 10 11 11 11 11 10
8 8 8 7 7 7 7 7 6 6 5 5 5 6 7 7 7 7 7 7 7 7 7 9 10 11 11 11 11 12 11 11 10 10 10 10 10 10 10 10 11 11 11 11
7 7 7 7 7 7 7 6 6 6 6 5 4 4 6 7 7 7 7 7 7 7 7 8 9 10 11 11 11 12 12 11 11 11 11 11 10 10 11 11 11 11 11 11
6 6 6 6 6 6 6 6 6 6 5 5 4 4 5 6 7 7 7 7 7 7 7 8 9 10 11 11 11 12 12 12 12 11 11 11 11 11 11 11 11 11 11 11
5 5 6 6 6 6 6 6 5 5 5 4 3 3 4 5 6 7 7 7 7 7 7 7 8 9 11 11 11 13 13 12 12 12 12 11 11 11 11 11 12 12 12 12
4 4 5 5 5 5 5 4 3 3 3 3 3 3 4 5 6 8 8 7 7 7 7 7 7 8 10 10 11 13 13 13 12 12 12 12 11 11 12 12 12 12 12 12
4 4 4 4 4 3 2 2 2 2 2 2 2 3 4 4 5 7 8 7 7 7 7 7 7 8 10 10 12 13 13 13 13 13 13 12 12 12 12 12 12 12 12 12
4 4 3 3 3 2 1 1 1 1 1 2 2 2 3 4 5 6 7 7 8 8 7 7 7 8 9 11 12 13 14 14 13 13 13 13 13 13 13 13 13 12 12 12
4 4 3 3 2 1 1 0 1 1 2 2 2 2 3 4 5 5 6 7 8 8 8 8 8 8 9 10 11 12 13 14 14 14 13 13 13 13 13 13 13 13 13 12

GEFSNGP_850_meantemp_006.txt.gz
Temperature
25 26 26 26 26 26 26 26 25 25 25 26 25 25 24 23 23 23 22 22 22 21 20 19 18 17 16 15 14 14 13 13 13 12 12 12 12 11 11 11 11 11 11 12
24 25 26 26 27 27 26 26 26 25 25 25 24 24 23 22 22 22 22 22 22 21 20 19 18 17 16 15 14 14 14 13 13 12 12 12 12 12 11 11 11 11 11 12
23 25 25 25 26 26 26 26 25 23 23 23 23 22 21 21 21 21 22 22 21 20 19 19 17 17 16 15 14 14 14 13 13 12 12 12 12 12 12 12 11 11 11 12
23 23 22 25 27 26 25 24 23 22 22 21 21 20 20 21 20 20 20 20 20 20 19 18 17 17 16 15 14 14 13 13 13 13 12 12 12 12 12 12 11 11 12 12
22 23 24 25 24 23 23 22 20 20 19 19 19 19 20 19 18 18 19 19 20 19 19 18 17 17 16 15 14 14 13 13 13 13 13 13 12 12 12 12 11 11 12 12
22 21 20 22 23 22 22 21 18 18 18 17 18 18 18 17 16 16 16 17 18 19 19 18 17 16 16 15 14 14 13 13 13 13 13 13 13 13 12 12 12 11 12 12
21 21 22 20 21 21 19 16 15 15 15 15 15 15 15 15 15 14 14 15 16 16 17 17 17 16 15 15 14 14 13 13 13 13 13 13 12 12 12 12 11 11 12 12
22 20 19 16 17 14 13 13 12 12 12 12 12 12 13 13 13 12 12 13 13 14 14 15 16 16 15 15 14 14 13 13 13 13 12 12 12 12 12 11 11 11 11 11
20 17 13 12 12 11 10 9 9 9 9 9 9 9 10 11 11 11 11 11 12 12 12 13 14 14 14 14 14 14 13 13 13 13 12 12 12 12 11 11 11 11 11 11
19 15 13 11 10 10 9 8 8 8 8 9 8 8 8 9 10 10 10 10 11 11 11 12 12 13 13 14 13 13 13 13 13 12 12 12 12 12 11 11 11 11 11 11
16 13 13 11 10 9 9 9 9 9 9 10 9 9 9 9 10 10 10 10 10 10 11 11 11 11 12 13 13 13 13 13 12 12 12 12 12 11 11 11 11 11 11 11
12 11 11 10 9 9 9 9 9 9 10 10 10 10 10 10 10 9 9 9 9 9 10 10 10 11 11 12 13 13 12 12 12 12 12 12 11 11 11 11 11 11 11 11
11 10 10 9 9 9 9 10 10 10 10 10 10 9 9 10 10 9 9 9 9 9 9 9 9 10 10 11 11 12 12 12 12 12 12 11 11 11 11 11 11 11 11 11
10 9 9 10 10 11 11 11 11 11 11 10 10 10 10 10 10 10 9 9 9 9 8 8 9 9 9 10 10 11 12 12 12 12 12 12 12 11 11 11 11 11 11 11
10 11 11 11 12 12 12 11 11 11 11 11 11 10 10 10 9 9 8 8 9 9 8 8 8 8 9 9 9 10 11 12 12 12 12 12 12 12 11 10 10 10 10 10
11 12 12 11 11 11 10 10 10 10 10 10 10 9 9 9 9 8 8 8 8 8 8 8 8 8 8 8 9 9 11 12 12 12 12 12 12 12 12 11 10 10 9 9
11 11 11 10 10 10 9 9 9 9 9 9 9 9 9 9 8 8 8 8 7 7 8 8 8 8 8 8 8 9 10 12 12 12 12 12 12 12 12 11 10 10 9 9
11 10 10 9 9 9 9 8 8 8 8 8 8 8 8 8 7 7 7 7 7 7 7 7 8 8 8 7 8 8 10 11 12 12 12 12 12 12 12 11 10 10 10 9
10 10 9 9 8 8 8 7 7 7 7 6 6 6 5 5 6 6 6 6 6 6 7 7 8 8 8 7 7 8 9 11 12 12 12 12 12 12 12 11 11 10 10 9
9 9 9 8 8 7 7 7 6 5 5 4 4 3 3 3 4 4 4 5 5 6 7 7 7 8 7 7 7 8 9 11 11 11 12 12 12 12 12 11 11 10 10 10
9 9 9 8 8 7 7 6 5 4 3 3 2 2 2 2 2 3 3 4 5 6 7 7 7 7 7 7 7 8 9 10 11 11 12 12 12 12 11 11 11 11 11 10
9 8 8 8 7 7 6 4 3 2 2 2 2 2 2 2 2 2 3 4 5 6 6 7 7 7 7 7 8 8 9 10 11 12 12 12 12 12 12 11 11 11 11 11
8 8 8 8 7 6 4 3 2 1 1 2 2 2 2 2 2 2 3 4 5 6 6 7 7 7 7 7 8 9 10 11 12 12 12 12 12 12 12 12 12 12 12 12
8 8 8 7 6 4 3 2 1 1 2 2 3 3 3 3 3 3 4 5 5 6 6 7 7 7 7 7 8 9 10 11 12 12 12 12 12 12 12 12 12 12 12 12
8 7 7 6 4 3 2 1 2 2 2 3 4 4 4 3 3 4 4 5 6 6 7 7 7 7 7 7 8 9 10 11 12 12 12 12 12 12 12 12 12 13 13 13
7 7 6 5 3 2 2 2 2 2 3 4 4 5 4 4 4 5 5 6 7 7 7 7 7 7 7 8 8 9 10 11 12 13 13 13 12 12 13 12 13 13 13 13
6 6 5 4 3 2 2 2 2 3 3 4 5 5 5 5 5 6 6 6 7 7 8 8 7 7 7 8 9 9 10 11 12 13 14 13 13 13 13 13 13 13 13 13

GEFSNGP_850_meantemp_012.txt.gz
Temperature
18 19 21 21 21 22 21 19 18 17 16 16 15 15 15 14 14 14 14 14 15 15 16 17 17 18 19 19 18 18 16 15 14 14 13 13 13 12 12 12 11 11 11 11
19 20 21 20 21 20 19 18 17 16 15 15 15 15 13 13 13 12 12 13 13 14 15 15 15 16 17 18 18 18 16 15 14 14 13 13 13 12 12 11 11 11 11 11
17 19 19 18 19 17 15 14 15 13 12 12 13 13 11 11 11 11 11 11 12 12 13 13 13 14 15 16 17 17 17 15 15 14 13 13 13 12 12 11 11 11 11 11
16 18 19 18 18 16 13 11 12 11 10 10 10 11 11 11 10 10 10 11 11 11 11 12 12 13 13 15 15 16 16 16 15 14 13 13 12 12 12 11 11 11 11 11
15 17 18 18 16 16 15 10 10 9 9 9 9 11 12 11 11 10 10 10 10 10 10 10 11 11 11 12 13 14 15 15 15 14 14 13 12 12 12 11 11 11 11 11
16 17 16 14 14 15 15 10 8 8 8 8 9 9 9 10 10 10 10 10 10 10 10 10 10 10 10 10 11 12 13 14 14 14 14 13 13 12 12 11 11 11 11 11
16 15 14 11 12 14 13 10 8 9 9 8 8 8 9 9 9 9 10 10 10 10 10 9 9 9 9 9 9 10 11 12 12 13 13 13 13 12 12 11 11 11 11 11
14 15 13 10 10 9 9 9 9 9 9 8 8 9 9 9 10 10 10 10 10 10 9 9 9 9 9 8 8 9 10 10 11 12 13 13 13 12 12 12 11 11 11 11
11 11 9 10 10 10 10 9 10 9 9 9 9 9 9 10 10 10 10 10 10 10 9 9 9 9 9 8 8 8 9 9 10 11 12 12 12 12 12 12 11 11 11 11
10 9 9 10 10 10 10 10 10 10 9 9 9 9 9 9 9 9 9 10 10 10 9 9 9 9 8 8 8 8 8 8 9 10 11 11 12 12 12 12 11 11 11 11
9 9 10 10 11 11 11 10 10 9 9 9 9 9 9 9 9 9 9 9 9 9 9 9 9 9 8 8 8 7 7 8 8 9 10 11 12 12 12 12 12 12 12 12
8 9 9 10 11 11 10 10 10 9 9 9 9 8 8 8 8 8 8 9 9 9 9 9 9 8 8 8 8 7 7 8 8 8 9 10 11 12 12 12 12 12 12 12
11 11 11 10 10 10 10 9 9 9 9 8 8 8 8 8 8 7 7 8 8 8 8 8 8 8 8 8 7 7 7 7 7 8 9 10 11 11 12 11 11 11 11 11
11 10 10 10 10 9 9 9 9 9 8 8 8 7 7 7 7 6 6 6 6 6 7 7 7 8 8 7 7 7 7 7 7 8 8 9 10 11 12 12 11 10 10 10
10 10 10 10 9 9 9 9 8 8 8 8 7 7 6 6 5 5 5 5 5 5 5 6 6 7 7 7 7 7 7 7 7 7 8 9 10 11 12 12 11 11 10 10
10 9 9 9 9 9 8 8 8 8 7 7 6 5 5 4 4 4 4 4 4 4 4 4 5 6 6 7 7 7 7 7 7 7 8 8 10 11 11 11 11 11 10 10
9 9 9 9 8 8 8 8 7 7 6 5 5 4 3 3 3 3 3 3 3 3 3 3 4 5 5 6 6 6 7 7 7 7 7 8 9 10 11 11 11 11 11 11
9 9 8 8 8 8 7 7 6 6 5 4 3 3 3 3 3 3 3 3 3 3 3 3 3 4 5 5 6 6 7 7 7 7 7 8 9 10 11 11 11 11 11 11
9 8 8 8 7 7 6 6 5 4 4 3 3 3 3 3 3 3 3 3 3 3 3 3 3 3 4 5 5 6 6 7 7 7 7 8 9 10 10 11 12 12 11 11
8 8 8 7 7 6 5 5 4 3 3 3 3 3 3 3 3 3 3 3 3 2 2 3 3 3 4 5 6 6 6 7 7 7 8 9 10 10 11 11 11 11 11 11
8 8 7 6 6 5 5 4 3 3 3 3 3 3 3 4 4 3 3 3 3 3 3 3 3 4 5 5 6 6 6 7 7 7 8 9 10 10 11 11 11 11 11 11
8 7 6 6 5 5 4 4 3 3 3 3 3 4 4 4 4 4 4 4 4 4 4 4 4 5 5 6 6 6 7 7 7 8 8 9 10 11 11 11 11 11 11 11
7 7 6 6 5 4 4 3 3 3 3 3 4 4 4 5 5 4 4 5 5 5 5 5 5 5 6 6 6 7 7 7 8 8 9 10 11 11 11 11 11 11 11 11
6 6 6 5 5 4 3 3 3 3 3 4 4 4 5 5 5 5 5 5 5 5 6 6 6 6 6 6 7 7 7 8 8 9 10 11 11 11 11 11 11 11 11 11
6 5 5 4 4 3 3 2 3 3 3 4 4 5 5 5 5 6 6 6 6 6 6 6 6 7 7 7 7 7 8 8 9 10 10 11 11 11 11 11 11 11 11 11
5 5 4 4 3 2 2 2 2 3 3 4 4 5 5 5 6 6 6 7 7 7 7 7 7 7 7 7 7 8 8 9 10 10 11 11 11 11 11 11 11 11 11 11
5 4 3 3 3 3 3 2 2 3 3 4 4 5 5 5 6 6 7 7 7 7 7 7 7 7 7 8 8 9 9 10 11 11 11 11 12 12 12 12 12 12 12 11

GEFSNGP_850_meantemp_018.txt.gz
Temperature
17 18 18 18 17 16 15 14 14 13 11 10 10 10 10 10 10 10 10 10 9 9 10 10 10 11 11 11 12 12 12 13 14 14 14 14 14 13 13 12 12 12 12 11
18 19 18 17 16 15 13 12 12 12 10 9 10 10 9 9 9 9 9 9 9 9 9 9 9 10 10 10 10 10 11 11 12 13 14 14 14 13 13 12 12 12 11 11
16 17 18 15 13 13 11 10 10 10 9 9 9 9 8 8 8 9 9 9 9 9 9 9 9 9 9 9 9 10 10 10 11 11 12 13 13 13 13 12 12 11 11 11
14 17 17 12 12 12 10 10 10 10 9 9 8 8 8 9 9 9 10 9 9 9 9 9 9 9 9 9 9 9 9 9 10 10 11 11 11 12 12 12 12 11 11 11
13 15 14 13 13 12 11 10 9 9 9 9 9 8 9 10 10 9 9 9 9 9 9 9 9 9 9 9 9 9 9 9 9 9 9 10 10 11 11 11 11 11 11 11
14 16 15 11 11 11 12 10 9 9 8 9 8 7 8 9 9 9 9 9 9 9 9 9 9 9 9 9 9 9 9 9 9 8 8 9 9 10 10 11 11 11 11 11
13 14 11 9 10 11 10 9 10 10 9 9 8 8 8 8 8 9 8 8 8 8 8 8 8 8 8 8 8 9 9 9 8 8 8 8 9 9 10 10 10 11 11 11
11 12 11 9 10 9 9 11 10 10 9 9 8 8 8 8 8 8 8 8 8 7 7 7 7 7 7 8 8 8 8 8 8 8 8 8 8 8 9 9 10 10 11 11
9 9 9 10 10 11 11 10 10 9 9 8 8 8 8 8 7 7 7 7 7 7 7 7 7 7 7 7 7 8 8 8 8 8 8 7 7 8 8 8 9 10 10 11
8 8 10 11 11 11 10 9 9 9 8 8 7 7 7 7 7 7 7 7 6 6 6 6 6 6 6 6 7 7 7 8 8 8 7 7 7 7 7 8 8 9 10 11
7 8 9 10 11 10 9 9 8 8 8 7 7 7 6 6 6 6 6 6 6 5 5 5 5 5 5 6 6 6 7 7 7 7 7 7 7 7 7 7 8 9 10 11
7 9 9 9 9 9 8 8 8 7 7 7 6 6 6 6 5 5 5 5 5 4 4 4 4 4 4 5 5 5 6 6 7 7 7 7 6 7 7 7 8 9 10 11
10 10 9 9 8 8 8 8 7 7 6 6 6 5 5 5 5 4 4 4 4 4 4 3 3 3 4 4 4 4 5 6 6 7 7 6 6 6 6 7 8 8 9 10
10 9 8 8 8 8 8 7 7 6 6 5 5 4 4 4 4 3 3 3 3 3 3 3 3 3 3 3 3 4 4 5 6 6 6 6 6 6 6 6 7 8 9 9
9 8 8 8 8 7 7 6 6 5 5 4 4 4 4 3 3 3 3 3 3 3 3 3 3 3 3 3 3 3 4 5 5 6 6 6 6 6 6 6 7 8 9 9
8 8 8 7 7 7 6 5 5 4 4 4 4 3 3 3 3 3 3 3 3 3 3 3 3 3 3 3 3 3 4 4 5 5 6 6 6 6 6 7 7 8 8 9
8 7 7 7 6 6 5 5 4 4 4 3 3 3 3 3 3 3 3 3 3 3 3 3 3 3 3 3 3 3 3 4 5 5 5 6 6 6 6 7 7 8 9 9
8 7 7 6 6 5 5 4 4 3 3 3 3 3 3 3 3 3 3 4 4 3 3 3 3 3 3 3 3 3 3 4 5 5 5 6 6 6 6 7 8 9 9 9
7 7 6 6 5 4 4 3 3 3 3 3 2 2 3 3 3 3 4 4 4 3 3 3 3 3 3 3 3 3 3 4 5 5 6 6 6 6 7 8 8 9 10 10
7 6 6 5 5 4 4 3 3 3 3 3 3 2 3 3 3 4 4 4 4 4 3 3 3 3 3 3 3 3 4 4 5 5 6 6 6 7 7 8 9 9 10 10
6 6 5 4 4 4 4 4 3 3 4 3 2 2 3 3 4 4 4 5 5 4 4 4 4 4 4 4 4 4 4 5 5 6 6 6 6 7 8 8 9 10 10 10
6 5 4 4 4 4 5 4 4 4 3 3 3 3 3 3 4 5 5 5 5 5 5 5 5 4 4 4 4 5 5 5 6 6 6 7 7 8 8 9 9 10 11 11
5 5 4 4 4 4 5 5 5 4 3 3 3 3 3 4 4 5 5 5 5 6 5 5 5 5 5 5 5 5 6 6 6 7 7 7 8 8 9 9 10 11 11 11
5 4 4 4 4 4 4 5 5 4 3 3 3 3 4 4 5 5 5 6 6 6 6 6 6 6 6 6 6 6 7 7 7 7 8 8 8 9 10 10 11 11 11 11
4 4 4 4 3 3 3 4 4 3 2 3 3 3 4 4 5 5 6 6 6 7 7 7 7 7 7 7 7 7 7 7 8 8 8 9 9 10 10 11 11 11 11 11
4 4 4 3 3 3 4 3 3 2 2 3 3 3 4 4 5 5 6 6 7 7 7 7 7 7 7 7 8 8 8 8 8 9 9 10 10 11 11 11 11 11 11 11
4 4 4 4 4 4 4 4 3 2 2 3 3 3 4 4 5 6 6 7 7 7 7 7 8 8 8 8 8 9 9 9 9 10 10 11 11 11 11 11 11 11 11 11

GEFSNGP_850_meantemp_024.txt.gz
Temperature
25 26 25 24 23 23 22 22 21 20 19 16 14 14 12 12 11 10 10 10 10 10 10 10 9 9 9 9 9 9 8 8 8 9 9 9 9 10 10 11 11 12 12 12
25 25 24 22 21 20 20 19 19 18 16 15 13 12 12 11 11 11 11 12 11 11 11 10 10 10 9 9 9 8 8 8 8 8 8 8 9 9 9 10 10 11 11 12
24 25 23 21 17 18 18 17 17 16 15 14 14 13 13 13 13 12 12 12 11 11 11 10 10 10 9 9 9 9 8 8 8 8 8 8 9 9 9 9 10 10 11 11
24 23 21 16 17 17 16 16 16 15 15 15 14 14 13 13 13 12 12 11 11 10 10 10 10 10 9 9 9 9 8 8 8 8 9 9 9 9 9 9 9 10 10 11
23 23 20 16 16 16 15 16 16 15 15 15 14 13 14 14 12 11 11 10 10 10 9 9 9 9 9 9 9 8 8 8 8 8 8 9 9 9 8 8 8 9 9 10
22 21 20 16 16 15 16 16 15 15 14 14 13 13 14 12 11 10 10 10 9 9 9 9 9 8 8 8 8 8 8 8 8 8 8 8 8 8 8 8 8 8 9 9
20 20 18 16 16 17 16 16 14 13 13 12 12 12 11 11 10 10 9 9 9 9 8 8 8 8 7 7 7 7 7 7 7 7 7 7 7 8 8 8 8 8 8 9
19 19 17 15 16 15 14 13 13 12 12 11 11 11 10 10 10 9 9 9 9 8 8 7 7 7 7 7 7 7 7 7 7 7 7 8 8 8 8 8 8 8 8 8
18 17 15 15 15 14 13 12 12 11 11 10 10 10 10 10 9 9 9 8 8 7 7 7 6 6 6 6 6 6 6 6 6 6 6 7 7 8 8 8 8 8 7 8
17 17 16 15 14 13 12 11 11 10 10 10 10 10 9 9 9 9 8 8 7 7 6 6 6 5 5 5 5 5 5 5 5 6 6 6 7 7 8 8 8 8 7 7
16 16 15 15 13 12 11 10 10 10 10 10 9 9 9 9 9 8 8 7 6 6 5 5 5 4 4 4 4 5 5 5 5 5 6 6 7 7 8 8 8 7 7 7
15 14 14 13 12 11 11 10 10 10 9 9 9 9 9 8 8 7 7 6 6 5 5 4 4 4 4 4 4 4 4 4 5 5 5 6 7 7 7 7 7 7 7 7
13 13 12 11 11 10 10 10 10 9 9 9 9 9 8 8 7 7 6 5 5 4 4 4 4 4 4 4 4 4 4 4 4 4 5 6 6 7 7 7 7 7 7 7
12 11 11 11 10 10 10 9 9 9 9 9 9 8 8 7 7 6 5 4 4 3 3 3 4 4 4 4 4 4 4 4 4 4 5 5 6 7 7 7 7 6 6 7
12 11 10 10 10 10 9 9 9 9 9 8 8 8 7 6 5 5 4 3 3 3 3 3 4 4 4 4 4 4 4 4 4 4 4 5 6 7 7 7 7 7 6 6
11 10 10 10 10 9 9 9 9 8 8 8 7 7 6 5 4 4 3 3 3 3 3 4 4 4 4 4 4 4 4 4 4 4 5 5 6 7 7 7 7 7 6 6
10 10 10 9 9 9 8 8 8 8 7 7 6 6 4 4 3 3 3 3 3 4 4 4 4 4 4 4 4 4 4 4 4 4 5 6 6 7 7 7 7 6 6 6
10 9 9 9 8 8 8 7 7 7 6 6 5 4 3 3 3 3 3 4 4 4 5 4 4 4 4 4 4 4 4 4 5 5 6 6 7 7 7 7 6 6 6 6
10 9 9 8 8 7 7 6 6 6 6 5 4 3 3 3 3 3 4 4 4 5 5 5 4 4 4 4 4 4 4 5 5 6 6 6 6 6 6 6 6 6 6 6
9 9 8 7 7 7 6 6 6 5 5 4 3 3 3 3 3 4 4 4 5 5 5 5 5 5 4 4 4 5 5 5 6 6 6 6 6 6 6 6 6 7 7 7
9 8 7 7 6 6 6 5 5 5 4 3 3 3 3 3 4 4 4 5 5 5 5 5 5 5 5 5 5 5 5 6 6 6 6 6 6 6 6 7 7 7 7 8
8 7 7 6 6 6 5 5 5 4 3 3 3 3 3 4 4 4 5 5 5 6 6 6 6 6 5 5 6 6 6 6 6 6 6 6 6 7 7 7 8 8 8 8
7 7 6 6 5 5 5 5 5 4 3 3 3 3 3 4 4 4 5 5 6 6 6 6 6 6 6 6 6 6 6 7 7 7 7 7 7 7 8 8 8 8 9 9
7 6 6 5 5 5 5 5 4 4 3 3 3 4 4 4 4 5 5 6 6 7 7 7 7 7 7 6 7 7 7 7 7 7 7 8 8 8 9 9 9 9 9 10
6 6 5 5 5 5 5 5 4 3 3 3 4 4 4 4 4 5 6 6 7 7 7 7 7 7 7 7 7 7 7 7 8 8 8 9 9 9 10 10 10 10 10 10
6 6 5 5 5 5 5 4 4 3 3 3 3 4 4 4 5 6 6 7 7 8 8 8 8 8 8 8 8 8 8 8 8 9 9 10 10 10 11 11 11 11 11 11
6 6 6 6 6 5 5 4 4 3 3 3 3 3 4 4 5 6 6 7 7 8 8 8 8 8 8 8 8 8 9 9 9 9 10 10 11 11 11 11 11 11 11 11

GEFSNGP_850_meantemp_030.txt.gz
Temperature
27 28 28 28 27 27 25 24 23 23 22 21 20 20 19 18 18 17 17 17 16 15 15 14 14 13 13 12 12 11 11 11 11 10 10 10 10 9 9 9 9 10 10 10
26 28 28 27 25 25 24 23 23 22 22 22 20 19 18 18 17 17 17 16 15 15 14 13 13 13 12 12 12 11 11 11 11 10 10 10 10 9 9 9 9 9 9 9
25 27 27 23 22 22 22 22 22 21 21 21 19 18 18 17 17 17 16 15 14 14 13 13 12 12 12 11 11 11 11 11 10 10 10 10 10 10 9 9 9 9 9 9
25 26 23 21 23 22 21 22 22 21 20 19 18 18 17 17 16 15 14 14 13 13 13 12 12 12 11 11 11 10 10 10 10 10 10 10 10 9 9 9 9 9 9 9
25 24 23 22 22 21 20 20 20 19 18 18 17 16 16 16 15 14 14 13 13 12 12 12 11 11 11 10 10 10 9 9 9 9 9 9 9 9 9 9 9 8 8 9
24 23 22 21 22 21 21 20 19 18 17 17 16 15 15 15 14 14 13 13 12 12 12 11 11 11 10 10 9 9 9 8 8 8 8 8 8 8 8 8 8 8 8 8
23 23 23 21 21 21 18 18 17 17 16 15 15 14 14 14 13 13 13 12 12 12 11 11 10 10 9 9 8 8 8 7 7 7 7 7 7 8 8 8 8 8 8 8
22 21 21 21 20 19 18 17 16 16 15 15 14 14 14 13 13 13 12 12 12 11 10 10 9 8 8 7 7 7 6 6 6 6 6 7 7 7 7 7 7 8 8 8
21 21 21 20 19 18 17 16 15 15 14 14 14 13 13 13 13 12 12 11 11 10 9 8 7 7 6 6 5 5 5 5 5 5 6 6 6 6 7 7 7 7 8 8
21 22 20 19 18 17 16 15 15 14 14 14 13 13 13 13 12 12 11 10 9 8 7 6 5 5 5 5 4 4 4 5 5 5 5 5 6 6 6 7 7 8 8 8
21 20 18 18 17 16 15 15 14 14 14 13 13 13 13 12 11 10 9 8 7 5 5 4 4 4 4 4 4 4 4 4 4 5 5 5 6 6 6 7 7 7 8 8
19 18 17 17 16 15 15 14 14 13 13 13 13 12 12 11 10 9 7 6 5 4 4 4 4 4 4 4 4 4 4 4 4 5 5 5 6 6 6 7 7 7 8 8
18 17 16 16 15 15 14 14 13 13 13 13 12 11 11 9 8 7 6 5 4 4 4 4 4 4 4 5 5 5 4 5 5 5 5 5 6 6 6 7 7 7 7 7
17 16 15 15 15 14 14 13 13 13 12 12 11 10 9 8 7 6 5 4 4 4 4 5 5 5 5 5 5 5 5 5 5 5 5 6 6 6 6 7 7 7 7 7
16 15 15 15 14 13 13 13 12 12 12 11 10 9 8 7 6 5 5 4 5 5 5 5 5 5 5 5 5 5 5 5 5 6 6 6 6 6 7 7 7 7 7 7
16 15 15 14 13 13 12 12 12 11 11 10 9 8 7 6 5 5 5 5 5 5 5 5 6 6 6 6 6 6 6 6 6 6 6 6 6 7 7 7 7 7 7 7
15 15 14 13 13 12 12 11 11 10 10 9 8 7 6 5 5 5 5 5 5 5 5 6 6 6 6 6 6 6 6 6 6 6 6 6 7 7 7 7 7 7 7 7
15 14 14 13 12 12 11 11 10 10 9 8 7 6 6 5 5 5 5 5 5 6 6 6 6 6 6 6 6 7 7 7 7 7 7 7 7 7 7 8 7 7 7 7
14 14 13 12 12 11 10 10 10 9 9 8 7 6 5 5 5 5 5 5 5 5 6 6 7 7 7 7 7 7 7 7 7 7 7 7 7 8 8 7 7 7 7 7
14 13 13 12 11 10 10 9 9 9 8 7 6 6 5 5 5 5 5 5 6 6 6 7 7 7 7 7 7 7 8 8 8 8 8 8 8 8 7 7 7 7 7 7
13 13 12 11 10 10 9 9 9 9 8 7 6 6 5 5 5 5 5 6 6 6 7 7 7 7 7 7 7 7 8 8 8 8 8 8 8 8 7 7 7 7 7 7
12 12 11 10 10 9 9 9 9 8 7 7 6 6 5 5 6 6 6 6 6 7 7 7 7 8 8 8 7 8 8 8 8 8 8 8 8 8 7 7 7 7 7 8
12 11 10 10 9 9 9 9 9 8 7 7 6 6 6 5 5 5 6 6 6 7 7 7 8 8 8 8 8 8 8 8 8 8 8 8 8 8 8 8 8 8 8 8
11 11 10 10 9 9 9 9 9 8 7 7 6 6 6 6 6 6 6 7 7 8 8 8 8 8 9 9 9 9 9 9 9 9 8 8 8 8 9 9 9 9 9 9
11 10 10 9 10 10 9 9 9 8 7 7 6 6 6 5 6 6 7 7 8 8 8 8 8 9 9 9 9 10 10 10 10 10 10 10 9 9 9 9 9 10 10 10
11 11 10 10 9 9 9 9 8 8 7 7 6 6 6 6 6 7 7 8 8 9 9 9 9 9 9 9 10 10 10 10 10 10 11 11 10 10 10 10 10 11 11 11
11 11 11 10 10 9 9 8 8 7 7 6 6 5 5 6 6 6 7 8 8 9 9 9 9 9 9 9 10 10 10 11 11 11 11 11 12 11 11 11 11 11 11 11

GEFSNGP_850_meantemp_036.txt.gz
Temperature
20 21 20 20 20 20 18 18 17 17 15 14 14 14 14 15 14 14 14 13 13 13 13 13 13 12 12 12 12 12 11 11 11 11 11 11 10 10 10 10 10 10 9 9
19 21 20 19 19 19 19 18 17 16 14 14 15 14 14 14 14 13 13 13 13 13 13 12 12 12 12 12 11 11 11 11 11 11 10 10 10 10 10 10 10 9 9 9
18 20 20 17 18 18 17 16 15 14 14 13 13 13 14 14 14 13 13 13 13 12 12 12 11 11 11 11 10 10 10 10 10 10 10 10 10 9 9 9 9 9 9 9
17 18 18 18 19 18 17 15 15 14 14 13 13 13 14 13 13 13 13 12 12 11 11 11 10 10 10 9 9 9 9 9 9 9 9 9 9 9 9 9 9 9 9 9
16 18 18 18 18 18 17 15 14 13 12 13 13 12 12 13 13 12 12 11 11 10 10 9 9 8 8 8 8 8 7 7 7 7 7 7 8 8 8 8 8 8 8 8
17 18 17 17 18 18 17 14 13 13 12 13 12 9 10 13 12 11 11 10 9 9 8 8 7 7 6 6 6 6 6 6 6 6 6 6 6 7 7 7 7 8 8 8
16 17 16 16 17 16 13 13 14 14 13 13 11 11 12 12 11 10 9 9 8 7 7 6 6 6 5 5 5 5 5 5 5 5 5 5 6 6 6 6 7 7 7 7
15 15 16 16 16 14 13 14 14 14 13 13 12 12 12 11 10 9 8 8 7 6 6 6 5 5 5 5 5 5 5 5 5 5 5 5 5 5 5 6 6 6 6 7
14 14 15 16 15 15 15 14 14 13 13 12 12 11 10 10 9 8 7 7 6 5 5 5 5 5 5 5 5 5 5 5 5 5 5 5 5 5 5 5 5 6 6 6
15 15 16 15 15 15 14 14 13 13 12 12 11 10 9 9 8 7 7 6 5 5 5 5 5 5 5 5 5 5 5 5 5 5 5 5 5 5 5 5 5 6 6 6
15 15 16 15 15 14 14 13 13 12 12 11 10 9 9 8 7 7 6 5 5 5 5 5 5 5 5 5 5 5 5 5 5 5 5 5 5 5 5 5 5 6 6 6
14 15 14 15 14 14 13 13 12 12 11 10 10 9 8 7 7 6 6 5 5 5 5 5 5 6 6 6 5 5 5 5 5 5 5 5 5 5 5 5 5 6 6 6
17 16 16 15 14 14 13 12 12 11 10 9 9 8 8 7 6 6 5 5 5 5 5 6 6 6 6 6 6 6 5 5 5 5 5 5 5 5 5 5 6 6 6 6
16 16 15 14 14 13 13 12 11 10 10 9 8 8 7 7 6 6 5 5 5 6 6 6 6 6 6 6 6 6 6 6 6 5 5 5 5 5 5 6 6 6 6 6
16 15 15 14 14 13 12 11 10 10 9 9 8 8 7 6 6 6 6 6 6 6 6 6 6 6 6 6 6 6 6 6 6 6 6 6 6 6 6 6 6 6 6 6
16 15 14 14 13 12 11 11 10 9 9 8 8 7 7 6 6 6 6 6 6 6 6 6 6 7 7 7 7 7 7 7 6 6 6 6 6 6 6 6 6 6 6 6
16 15 14 13 12 12 11 10 9 9 9 8 8 7 7 7 7 7 7 6 6 6 6 6 7 7 7 7 7 7 7 7 7 7 7 7 7 7 6 6 6 6 6 6
16 15 14 13 12 11 11 10 9 9 8 8 7 7 7 6 6 6 6 7 7 7 7 7 7 7 7 7 7 7 7 7 7 7 7 7 7 7 7 7 7 6 6 6
15 14 13 13 12 11 10 9 9 9 8 8 7 7 7 6 6 7 7 7 6 6 7 7 7 8 7 7 7 7 7 7 7 7 7 7 7 7 7 7 7 7 7 7
14 14 13 12 12 11 10 9 9 9 8 8 7 7 7 6 6 7 7 7 7 7 7 7 8 8 8 8 8 8 7 7 7 7 7 7 7 7 7 7 7 7 7 7
14 13 13 12 11 10 10 9 9 9 8 8 7 7 6 6 7 7 7 7 7 7 8 8 8 8 8 8 8 8 8 7 7 7 7 7 7 7 7 7 7 7 7 7
14 13 13 12 11 10 10 9 9 8 8 7 7 7 7 7 7 7 7 7 7 8 8 8 8 9 9 9 8 8 8 8 8 8 7 7 7 7 7 7 7 7 8 8
14 13 12 12 11 10 10 9 9 8 8 7 7 7 6 6 6 6 7 7 7 8 8 8 9 9 9 9 9 9 8 8 8 8 8 8 7 7 7 7 8 8 8 8
14 13 12 12 11 10 10 9 9 8 8 7 7 6 6 6 7 7 7 7 8 8 8 9 9 9 10 10 9 9 9 9 9 8 8 8 8 8 8 8 8 8 9 9
14 13 12 12 11 10 10 9 9 8 8 7 7 6 6 6 6 6 7 8 8 9 9 9 9 10 10 10 10 10 10 9 9 9 9 9 8 8 8 9 9 9 9 9
14 13 13 12 11 10 10 9 9 8 8 7 7 7 6 6 6 7 7 8 8 8 9 9 9 10 10 10 10 10 10 10 10 10 9 9 9 9 9 9 9 9 10 10
14 13 13 12 11 10 10 9 9 8 7 7 7 6 6 6 6 6 7 7 8 8 8 9 9 9 10 10 10 10 11 11 11 11 10 10 10 10 10 10 10 10 10 10

GEFSNGP_850_meantemp_042.txt.gz
Temperature
17 18 18 18 18 17 16 16 15 15 14 13 12 12 13 13 13 13 12 12 11 11 10 10 10 9 9 9 9 9 9 9 9 9 9 9 10 10 10 10 10 10 10 10
18 18 17 17 17 17 17 16 15 14 13 13 13 13 13 13 12 12 11 11 10 10 9 9 8 8 7 7 7 7 7 7 7 7 8 8 8 9 9 9 9 10 10 10
16 17 17 16 16 17 16 15 14 13 12 12 11 11 12 12 12 11 10 10 9 9 8 8 7 7 6 6 6 6 6 6 6 6 6 6 7 7 8 8 8 9 9 9
15 17 17 16 17 17 15 14 13 13 12 12 12 12 12 12 11 10 9 9 8 8 7 7 6 6 5 5 5 5 5 5 5 5 5 5 6 6 6 7 7 7 8 8
14 16 16 16 16 16 14 13 12 12 11 12 12 10 11 11 10 9 9 8 7 7 6 6 6 5 5 5 5 5 5 5 5 5 5 5 5 5 6 6 6 6 7 7
14 17 16 16 17 16 14 13 13 12 11 11 10 7 8 10 9 9 8 7 7 6 6 6 6 5 5 5 5 5 5 5 5 5 4 4 4 5 5 5 5 6 6 6
14 15 15 15 16 15 14 14 13 13 12 11 9 9 10 9 9 8 7 7 7 6 6 6 6 5 5 5 5 5 5 5 5 5 4 4 4 4 5 5 5 5 5 6
13 15 15 16 14 14 14 14 14 13 12 11 11 10 9 9 8 7 7 7 6 6 6 6 6 5 5 5 5 5 5 5 5 5 4 4 4 4 4 4 4 5 5 5
13 14 15 16 15 16 15 14 13 13 12 11 10 9 9 8 7 7 7 6 6 6 6 6 6 5 5 5 5 5 5 5 5 5 5 4 4 4 4 4 4 5 5 5
13 13 14 15 15 15 14 14 13 12 11 10 9 9 8 7 7 7 7 6 6 6 5 6 6 6 6 6 5 5 5 5 5 5 5 5 4 4 4 4 4 5 5 5
13 13 14 15 15 15 14 13 12 11 11 10 9 8 8 7 7 7 7 6 6 6 6 6 6 6 6 6 6 6 6 6 6 5 5 5 5 4 4 5 5 5 5 5
14 15 13 16 16 15 13 13 12 11 10 9 8 8 7 7 7 7 6 6 6 6 6 6 6 6 6 6 6 6 6 6 6 6 5 5 5 5 5 5 5 5 5 5
19 18 18 16 15 14 13 12 12 11 10 9 8 8 7 7 7 7 7 7 6 6 6 6 6 6 6 6 6 6 6 6 6 6 6 5 5 5 5 5 5 5 5 5
18 18 16 15 15 14 13 12 11 10 9 9 8 8 7 7 7 7 7 7 7 7 7 6 6 6 6 6 6 6 6 6 6 6 6 6 5 5 5 5 5 5 5 5
18 17 17 16 14 13 13 12 11 10 9 9 8 8 7 7 7 7 7 7 7 7 7 7 7 7 7 7 7 7 7 7 7 6 6 6 6 6 5 5 5 5 5 6
18 16 16 15 14 13 12 12 11 10 9 9 8 8 7 7 7 7 7 7 7 7 7 7 7 7 7 7 7 7 7 7 7 7 6 6 6 6 6 6 6 6 6 6
17 16 15 15 14 13 12 12 10 10 9 8 8 8 7 7 7 8 8 8 7 7 7 7 7 7 7 7 7 7 7 7 7 7 7 7 6 6 6 6 6 6 6 6
19 18 17 16 15 13 12 11 10 9 9 8 8 8 7 7 7 7 7 8 8 8 8 8 8 8 8 7 7 7 7 7 7 7 7 7 7 6 6 6 6 6 6 6
18 17 16 15 14 13 12 11 10 9 9 8 8 8 7 7 7 7 7 7 7 8 8 8 8 8 8 8 7 7 7 7 7 7 7 7 7 7 6 6 6 6 6 6
17 17 16 15 14 13 12 11 10 9 9 8 8 8 8 7 7 7 8 8 7 7 7 8 8 8 8 8 8 7 7 7 7 7 7 7 7 7 7 7 7 7 6 6
17 16 16 15 14 13 12 11 10 10 9 8 8 8 8 7 7 7 8 8 8 8 8 8 8 8 8 8 8 8 7 7 7 7 7 7 7 7 7 7 7 7 7 7
17 16 15 14 13 13 12 11 10 10 9 9 8 8 8 8 8 8 8 7 8 8 8 8 8 8 9 9 9 8 8 7 7 7 7 7 7 7 7 7 7 7 7 7
17 16 15 14 13 13 12 11 10 10 9 9 8 8 8 7 7 7 8 8 8 8 8 8 8 9 9 9 9 8 8 8 7 7 7 7 7 8 8 8 8 8 8 8
17 16 15 14 13 12 12 11 10 10 9 9 8 8 8 8 8 7 7 7 7 8 8 8 9 9 9 9 9 9 8 8 8 8 8 8 8 8 8 8 8 8 8 9
16 15 15 14 14 13 12 11 10 10 9 8 8 8 7 7 7 7 7 7 7 8 8 8 9 9 9 9 9 9 9 9 8 8 8 8 8 8 9 9 9 9 9 9
16 15 15 15 14 13 12 11 10 10 9 8 8 8 7 7 7 7 7 7 7 7 8 8 9 9 9 9 9 9 9 9 9 9 8 8 9 9 9 9 9 9 9 9
15 15 15 14 14 13 12 11 11 10 9 8 8 8 7 7 7 7 7 7 7 7 7 8 8 8 9 9 9 9 9 10 9 9 9 9 9 9 9 9 9 9 10 10

GEFSNGP_850_meantemp_048.txt.gz
Temperature
25 25 25 25 24 24 23 23 23 23 22 22 22 20 19 17 17 16 15 14 13 12 12 11 10 9 9 9 8 8 7 7 7 7 7 7 7 7 7 7 7 7 8 8
25 25 24 24 24 23 23 23 23 23 22 22 20 19 18 17 16 15 14 13 12 12 11 10 9 9 8 8 8 7 7 7 7 6 6 6 6 6 6 6 6 7 7 7
25 25 24 24 24 23 23 23 23 22 22 22 20 19 17 16 15 14 13 12 11 11 10 10 9 8 8 8 7 7 6 6 6 6 6 6 6 6 6 6 6 6 6 6
25 24 23 24 24 24 23 23 23 22 22 21 19 18 16 15 14 13 12 11 11 10 10 9 9 8 7 7 7 6 6 6 6 6 6 6 6 6 6 6 6 6 6 6
25 25 25 24 23 23 22 22 23 22 21 19 18 17 18 15 13 12 11 11 10 9 9 9 8 8 7 7 6 6 6 6 6 6 6 6 6 6 6 5 5 5 6 6
24 23 23 24 23 22 22 22 22 20 20 19 18 18 18 15 13 12 11 10 9 9 9 8 8 7 7 6 6 6 6 6 6 6 6 6 6 6 6 5 5 5 5 6
24 24 25 24 22 21 22 22 20 19 18 17 17 16 15 13 12 11 10 10 9 9 8 8 7 7 6 6 6 6 6 6 6 6 6 6 6 6 5 5 5 5 5 5
24 23 24 23 22 22 22 20 19 18 17 16 15 15 14 13 11 11 10 9 9 8 8 8 7 7 6 6 6 6 6 6 6 6 6 6 6 6 6 5 5 5 5 5
24 24 23 22 23 22 20 19 18 17 16 15 15 14 13 12 11 10 10 9 9 8 8 7 7 7 6 6 6 6 6 6 6 6 6 6 6 6 6 5 5 5 5 5
23 24 23 22 21 20 19 18 17 16 15 15 14 13 12 11 11 10 9 9 8 8 8 7 7 7 7 6 6 6 6 6 6 6 6 6 6 6 6 5 5 5 5 5
23 24 23 22 21 20 19 17 16 16 15 14 13 13 12 11 10 9 9 8 8 7 7 7 7 7 7 6 6 6 6 6 6 6 7 6 6 6 6 6 5 5 5 5
24 24 23 23 21 20 18 17 16 15 14 14 13 12 11 10 10 9 9 8 8 7 7 7 7 7 7 6 6 6 6 6 6 7 7 7 6 6 6 6 5 5 5 5
23 23 22 21 20 19 18 17 16 15 14 13 12 11 11 10 9 9 8 8 7 7 7 7 7 7 7 7 7 6 6 6 6 7 7 7 7 6 6 6 6 6 6 5
21 20 21 20 20 18 17 16 15 14 13 13 12 11 10 10 9 9 8 8 7 7 7 7 7 7 7 7 7 7 7 7 7 7 7 7 7 7 6 6 6 6 6 6
20 20 20 20 19 18 16 16 15 15 14 13 12 11 10 10 9 8 8 8 7 7 7 7 7 7 7 7 7 7 7 7 7 7 7 7 7 7 7 6 6 6 6 6
21 19 19 18 18 17 16 16 15 15 14 13 12 11 10 9 9 8 8 8 7 7 7 7 7 8 8 7 7 7 7 7 7 7 7 8 7 7 7 6 6 6 6 6
20 19 18 18 18 17 17 16 15 14 14 12 11 10 10 9 9 8 8 8 7 7 7 7 7 8 8 7 7 7 7 7 7 8 8 8 7 7 7 6 6 6 6 6
20 20 19 19 19 18 17 16 15 14 13 12 11 10 9 9 8 8 8 8 8 7 7 8 8 8 8 8 7 7 7 7 8 8 8 8 7 7 7 7 7 6 6 6
19 19 19 18 18 17 16 15 14 13 12 11 10 10 9 9 8 8 8 8 7 8 8 9 9 8 8 8 8 8 7 8 8 8 8 8 8 8 7 7 7 7 7 7
18 18 17 17 17 16 15 15 14 13 12 11 10 10 9 9 8 8 8 7 7 7 8 8 9 8 8 8 8 8 8 8 8 8 8 8 8 8 8 7 7 7 7 7
17 17 16 16 16 15 15 14 13 12 11 10 10 9 9 9 8 8 8 8 7 7 8 8 8 8 8 8 8 8 8 8 8 8 8 8 8 8 8 8 8 7 7 7
16 16 16 16 16 15 15 14 13 12 11 10 10 9 9 9 9 8 8 7 7 8 8 8 8 8 8 8 8 8 8 8 8 8 8 8 8 8 8 8 8 8 8 8
14 15 15 15 15 15 14 14 13 12 11 11 10 9 9 9 9 8 8 7 7 8 8 7 8 8 8 8 8 8 8 8 8 8 8 9 9 9 9 9 9 9 9 9
14 14 14 14 14 14 14 14 13 12 11 10 10 10 9 9 9 8 8 8 8 8 7 7 8 8 8 8 8 8 8 8 8 8 8 9 9 9 9 9 9 9 9 9
13 13 13 13 13 13 13 13 13 12 11 10 10 10 9 9 9 8 8 7 8 8 7 7 8 8 8 8 8 8 8 8 8 8 8 9 9 9 9 9 9 9 9 10
13 13 13 13 13 13 13 13 12 12 11 11 10 10 9 9 9 8 8 7 7 7 7 7 7 7 8 8 8 8 8 8 8 8 8 9 9 9 9 9 9 10 10 10
13 13 13 13 13 13 13 13 12 12 12 11 10 10 9 9 8 8 8 7 7 7 6 6 6 7 7 8 8 8 8 8 8 8 8 9 9 9 9 9 9 10 10 10

GEFSNGP_850_meantemp_054.txt.gz
Temperature
29 29 29 29 29 28 27 27 26 26 26 26 25 24 23 22 21 20 19 18 17 16 15 14 13 12 12 11 11 10 10 9 9 9 9 9 8 8 8 8 8 8 8 8
28 29 29 28 29 28 28 27 27 26 26 26 25 24 23 21 20 19 18 17 16 15 14 13 13 12 11 11 10 10 9 9 9 9 8 8 8 8 8 8 8 8 8 8
27 28 28 27 28 28 28 28 27 26 25 25 24 23 22 21 20 18 17 16 15 14 13 13 12 12 11 11 10 10 9 9 9 8 8 8 8 8 8 8 8 8 8 8
27 27 25 27 29 28 27 27 27 26 25 25 24 23 21 19 18 17 16 15 14 14 13 13 12 11 11 10 10 9 9 9 8 8 8 8 8 8 8 8 8 8 8 7
26 26 26 27 27 27 26 26 26 25 25 24 23 22 20 18 18 17 16 15 14 13 13 12 11 11 10 10 9 9 9 8 8 8 8 8 8 8 8 8 7 7 7 7
26 25 25 27 27 27 26 25 25 25 24 23 22 22 21 19 18 16 15 14 13 13 12 12 11 10 10 9 9 9 8 8 8 8 8 8 8 8 8 8 7 7 7 7
26 25 26 27 27 27 25 23 24 24 23 22 21 20 19 18 17 16 15 14 13 12 12 11 11 10 10 9 9 8 8 8 8 8 8 8 8 8 8 8 7 7 7 7
26 25 25 27 27 26 25 24 24 23 22 22 20 20 19 18 17 15 14 14 13 12 11 11 10 10 9 9 9 8 8 8 8 8 8 8 8 8 8 8 7 7 7 7
27 26 26 26 26 26 25 24 23 23 22 21 20 19 18 17 16 15 14 13 12 12 11 11 10 10 9 9 8 8 8 8 8 8 8 8 8 8 8 7 7 7 7 7
26 27 27 27 26 26 25 24 23 22 21 20 20 19 18 17 15 14 14 13 12 11 11 10 10 10 9 9 8 8 8 8 8 8 8 8 8 8 7 7 7 7 7 6
27 27 27 27 26 26 25 24 23 22 21 20 19 18 17 16 15 14 13 13 12 11 11 10 10 9 9 9 8 8 8 8 8 8 8 8 8 8 8 7 7 7 6 6
27 27 26 26 26 25 24 24 23 22 21 20 19 18 17 16 15 14 13 12 12 11 10 10 10 9 9 9 8 8 8 8 8 8 8 8 8 8 8 7 7 7 6 6
27 27 26 26 26 25 24 24 23 21 20 19 18 17 16 15 14 14 13 12 11 11 10 10 10 9 9 9 8 8 8 8 8 8 8 8 8 8 8 8 7 7 7 6
27 26 26 25 25 25 24 23 23 21 20 19 18 17 16 15 14 13 13 12 11 11 10 10 9 9 9 9 8 8 8 8 8 8 8 8 8 8 8 8 7 7 7 7
26 26 25 25 25 24 24 23 22 21 20 19 18 17 16 15 14 13 12 12 11 10 10 10 9 9 9 9 9 8 8 8 9 9 9 9 9 9 8 8 7 7 7 7
25 25 25 25 25 24 23 23 22 21 21 20 18 17 16 15 14 13 12 11 11 10 10 9 9 9 9 9 9 9 8 9 9 9 9 9 9 9 8 8 8 8 7 7
24 24 24 24 24 24 23 23 22 21 21 19 18 17 15 14 13 13 12 11 10 10 10 9 9 9 9 9 9 9 9 9 9 9 9 9 9 9 9 8 8 8 8 7
23 23 23 23 23 23 23 22 22 21 20 19 17 16 15 14 13 12 11 11 10 10 10 9 9 9 9 9 9 9 9 9 9 9 9 9 9 9 9 8 8 8 8 8
21 21 22 22 22 22 22 22 21 20 19 18 17 16 14 14 13 12 11 11 10 10 10 10 10 9 9 9 9 9 9 9 10 10 10 10 9 9 9 9 8 8 8 8
19 20 20 20 21 21 21 20 20 19 18 17 16 15 14 13 12 12 11 11 11 10 10 10 9 9 9 9 10 9 9 9 10 10 10 10 10 9 9 9 8 8 8 8
18 18 18 18 19 19 19 19 18 18 17 16 15 14 14 13 12 12 11 11 11 11 10 10 9 9 9 10 10 9 9 9 10 10 10 10 10 9 9 9 9 9 8 8
16 16 16 17 17 17 17 17 17 17 16 15 15 14 13 13 12 12 11 11 11 10 10 9 9 9 9 10 9 9 9 9 10 10 10 10 10 9 9 9 9 9 9 9
14 15 15 15 16 16 16 16 16 16 15 15 15 14 13 13 12 12 12 11 11 11 10 9 9 9 9 9 9 9 9 9 9 10 10 10 10 10 10 10 9 9 9 9
14 14 14 14 15 15 15 16 16 15 15 15 14 14 13 13 12 12 12 11 11 11 10 9 9 9 9 9 9 9 9 9 9 9 10 10 10 10 10 10 10 10 9 9
13 13 13 14 14 15 15 16 16 15 15 15 14 14 13 12 12 12 12 11 11 10 10 9 9 9 9 8 8 9 9 9 9 9 9 10 10 10 10 10 10 10 10 9
13 13 13 13 14 14 14 15 15 15 15 15 14 14 13 12 12 11 11 11 10 10 9 9 8 8 8 8 8 8 8 8 8 9 9 9 9 9 9 10 10 10 9 10
13 13 13 14 14 14 14 15 15 15 15 14 14 14 13 12 12 11 10 10 10 9 9 9 8 8 8 8 8 8 8 8 8 8 9 9 9 9 9 9 10 10 10 10

GEFSNGP_850_meantemp_060.txt.gz
Temperature
23 23 24 24 24 24 22 20 19 19 18 18 18 18 19 19 19 18 17 17 16 15 15 14 13 13 12 12 11 11 11 10 10 10 9 9 9 9 9 8 8 8 8 8
23 24 24 24 24 24 24 22 21 19 19 19 20 20 19 18 18 17 17 16 16 15 14 13 13 12 12 11 11 11 10 10 10 9 9 9 9 8 8 8 8 8 8 8
21 22 23 22 23 24 23 23 21 20 19 19 18 18 18 18 18 17 17 16 15 14 14 13 12 12 11 11 11 10 10 10 9 9 9 9 8 8 8 8 8 8 8 8
19 21 22 21 23 23 22 21 20 19 19 18 18 18 18 18 18 17 16 16 15 14 13 13 12 12 11 11 10 10 10 9 9 9 9 8 8 8 8 8 8 8 8 8
19 20 21 22 23 23 21 20 20 19 18 18 18 17 17 18 17 17 16 15 15 14 13 12 12 11 11 11 10 10 10 9 9 9 8 8 8 8 8 8 8 8 8 8
19 20 20 21 23 24 20 19 20 20 19 19 18 15 16 18 17 17 16 15 14 14 13 12 12 11 11 10 10 10 9 9 9 8 8 8 8 8 8 8 8 8 8 8
19 19 20 21 24 24 21 19 21 22 21 21 18 17 19 18 17 17 16 15 14 13 13 12 11 11 10 10 10 9 9 9 9 9 8 8 8 8 8 8 8 8 8 8
18 19 20 22 23 21 21 22 22 22 22 21 21 20 19 18 17 17 16 15 14 13 13 12 11 11 10 10 10 9 9 9 9 9 8 8 8 8 8 8 8 7 7 7
18 19 22 25 25 25 25 23 23 22 22 21 20 20 19 18 17 17 16 15 14 13 12 12 11 10 10 10 10 9 9 9 9 9 9 8 8 8 8 8 7 7 7 7
20 20 23 25 25 25 25 24 23 23 22 21 21 20 19 18 18 17 16 15 14 13 12 12 11 10 10 10 9 9 9 9 9 9 9 9 8 8 8 8 7 7 7 7
20 21 23 25 25 25 24 24 23 23 22 22 21 20 19 19 18 17 16 15 14 13 12 12 11 10 10 10 9 9 9 9 9 9 9 9 9 8 8 8 7 7 7 7
20 22 20 24 25 25 24 24 23 23 22 21 21 20 20 19 18 17 16 15 14 13 12 12 11 10 10 10 9 9 9 9 9 9 9 9 9 9 8 8 8 7 7 7
24 25 25 25 25 25 24 24 23 23 22 22 21 20 20 19 18 17 16 15 14 13 12 11 11 10 10 10 10 9 9 9 9 9 9 9 9 8 8 8 8 8 7 7
24 25 24 24 24 24 24 24 23 23 22 22 21 20 19 18 18 17 16 15 14 13 12 11 11 10 10 10 10 10 9 9 9 9 9 9 9 8 8 8 8 8 8 7
23 23 23 23 24 24 23 23 23 22 22 21 21 20 19 18 18 17 16 15 14 13 12 12 11 11 10 10 10 10 10 10 9 9 9 9 9 9 9 8 8 8 8 7
22 22 22 22 22 22 22 22 22 22 21 21 20 20 19 18 17 17 16 15 14 13 13 12 11 11 10 10 10 10 10 10 9 9 9 9 9 9 9 8 8 8 8 8
19 18 18 19 19 20 21 21 21 21 21 20 20 19 19 18 17 16 16 15 14 13 13 12 11 11 10 10 10 10 10 10 10 10 9 9 9 9 9 8 8 8 8 8
16 16 17 17 18 18 19 20 20 20 20 20 19 19 18 18 17 17 16 15 14 14 13 12 11 11 10 10 10 10 9 10 10 10 9 9 9 9 9 9 8 8 8 8
15 15 15 16 16 17 17 18 18 19 19 19 18 18 18 17 17 16 16 15 14 14 13 12 11 11 10 10 10 10 9 9 10 10 9 9 9 9 9 9 8 8 8 8
14 14 14 15 15 15 16 16 17 17 17 17 17 17 17 17 16 16 15 15 14 14 13 12 11 11 11 10 10 10 9 9 9 9 10 10 9 9 9 9 9 8 8 8
13 13 13 14 14 14 15 15 15 16 16 16 16 16 16 16 16 15 15 15 14 13 13 12 11 11 11 10 10 9 9 9 9 9 9 9 9 9 9 9 9 9 8 8
12 12 12 13 13 13 13 14 14 14 14 15 15 15 15 15 15 15 15 14 14 13 12 12 11 11 10 10 10 9 9 9 9 9 9 9 9 9 9 9 9 9 9 8
12 12 12 12 12 12 12 13 13 13 13 13 13 14 14 14 14 14 14 14 13 13 12 11 11 11 10 10 9 9 9 9 9 9 9 9 9 9 9 9 9 9 9 8
11 11 11 12 12 12 12 12 12 12 12 13 13 13 13 13 14 14 14 13 13 12 11 11 11 10 10 9 9 9 8 8 9 9 9 9 9 9 9 9 9 9 9 9
11 11 11 11 11 11 11 11 11 11 12 12 12 12 13 13 13 13 13 12 12 11 11 11 10 10 9 9 8 8 8 8 8 8 9 9 9 9 9 9 9 9 9 9
10 10 10 10 10 10 10 10 10 10 10 11 11 11 12 12 12 12 12 11 11 10 10 10 9 9 9 8 8 8 8 8 8 8 8 8 9 9 9 9 9 9 9 9
10 10 10 10 10 10 10 10 10 9 10 10 10 10 11 11 11 11 11 11 10 10 9 9 9 8 8 8 8 8 8 8 8 8 8 8 8 8 9 9 9 9 9 9

GEFSNGP_850_meantemp_066.txt.gz
Temperature
20 20 21 21 21 20 19 18 17 18 17 18 17 16 18 19 19 19 18 18 18 17 16 15 14 13 12 12 12 11 11 10 10 10 10 10 9 9 9 9 9 8 8 8
21 22 21 21 21 21 20 19 18 19 18 17 17 18 18 18 18 18 19 18 18 17 16 15 14 13 12 12 11 11 10 10 10 10 10 9 9 9 9 9 8 8 8 8
19 20 21 21 22 21 21 20 19 19 19 18 17 17 18 19 19 19 19 18 17 16 15 14 13 12 12 11 11 11 10 10 10 10 10 9 9 9 9 8 8 8 8 8
18 20 21 20 20 21 21 20 19 19 18 16 18 20 20 20 20 19 19 18 17 16 15 14 13 12 12 11 11 10 10 10 10 9 9 9 9 9 9 8 8 8 8 8
16 19 20 20 20 20 20 21 19 18 18 18 17 18 19 20 20 19 18 17 16 15 14 14 13 12 12 11 11 10 10 10 10 9 9 9 9 9 9 8 8 8 8 8
16 19 20 20 21 21 21 20 19 18 17 16 16 15 17 21 20 19 18 17 16 15 14 14 13 12 11 11 11 10 10 10 10 9 9 9 9 9 9 8 8 8 8 8
16 18 18 19 20 21 20 19 21 21 20 17 17 19 21 21 20 19 18 17 16 15 14 14 13 12 11 11 11 10 10 10 10 9 9 9 9 9 8 8 8 8 8 8
15 18 19 20 20 19 20 23 23 23 22 21 22 22 21 21 20 19 18 17 16 15 14 14 13 12 12 11 11 10 10 10 10 9 9 9 9 9 9 8 8 8 8 8
16 18 20 20 21 23 23 24 24 24 23 22 22 22 21 21 20 19 18 17 16 15 14 14 13 12 12 11 11 10 10 10 10 10 9 9 9 9 9 8 8 8 8 7
16 17 20 22 23 24 24 24 25 25 24 23 22 22 21 21 20 19 18 17 16 15 15 14 13 12 12 11 11 10 10 10 10 10 10 9 9 9 8 8 8 8 8 7
17 17 20 23 24 24 24 24 24 24 24 23 23 22 22 21 20 19 18 17 16 16 15 14 13 13 12 11 11 10 10 10 10 10 9 9 9 9 9 8 8 8 8 7
17 19 18 20 22 22 23 24 24 23 23 23 22 22 22 21 20 19 18 17 16 16 15 14 14 13 12 11 11 10 10 10 10 10 9 9 9 9 9 9 8 8 8 7
17 19 18 19 19 20 21 22 22 22 22 22 22 21 21 21 20 19 18 17 17 16 15 14 14 13 12 11 11 10 10 10 10 10 9 9 9 9 9 9 9 8 8 8
16 17 16 16 17 18 20 21 21 21 21 20 21 20 20 20 19 19 18 18 17 16 15 14 14 13 12 12 11 11 10 10 10 10 9 9 9 9 9 8 8 9 8 8
14 14 14 15 16 17 18 19 19 18 19 19 19 19 19 19 19 18 18 17 16 16 15 14 14 13 12 12 11 11 10 10 10 10 10 9 9 9 9 9 8 8 8 8
14 15 15 15 15 15 16 16 16 16 17 17 18 18 18 18 17 17 17 17 16 16 15 14 14 13 12 12 11 11 10 10 10 10 10 10 9 9 9 9 9 8 8 8
13 12 13 13 13 14 14 14 15 15 15 16 16 16 16 16 17 17 16 16 15 15 15 14 14 13 12 12 11 11 10 10 10 10 9 9 9 9 9 9 9 8 8 8
12 12 12 12 12 13 13 14 14 14 14 15 15 15 15 15 15 15 15 15 15 15 14 14 13 13 12 11 11 11 10 10 10 10 9 9 10 9 9 9 9 8 8 8
12 12 12 12 12 13 13 13 13 14 14 14 14 14 14 14 14 14 14 14 14 14 14 14 13 13 12 11 11 10 10 10 10 9 9 9 10 9 9 9 9 8 8 8
12 12 12 12 12 12 12 12 12 13 13 13 13 13 13 13 13 13 13 13 13 13 13 13 13 12 12 11 11 10 10 10 9 9 9 9 9 9 9 9 9 8 8 8
11 11 11 11 11 11 11 11 11 11 11 11 11 11 12 12 12 12 12 12 13 13 13 13 12 12 11 11 11 10 10 9 9 9 9 9 9 9 9 9 8 8 8 8
11 11 11 10 10 10 10 10 10 10 10 10 10 10 11 11 11 11 12 12 12 12 12 12 12 12 11 11 10 10 10 9 9 9 9 9 9 9 9 9 8 8 8 8
10 10 10 10 10 9 10 10 10 10 10 10 10 10 10 10 10 10 10 11 11 12 12 12 11 11 10 10 10 9 9 9 9 8 8 9 9 9 9 8 8 8 8 8
9 9 9 9 9 9 9 9 9 9 9 9 9 9 9 9 9 10 10 10 10 11 11 11 10 10 10 9 9 9 9 8 8 8 8 8 8 8 8 8 8 8 8 8
9 9 9 9 9 9 9 9 9 9 9 9 9 9 9 9 8 9 9 9 10 10 10 10 10 10 9 9 9 8 8 8 8 8 8 8 8 8 8 8 8 8 8 8
9 9 9 9 9 9 9 9 8 8 8 8 8 8 8 8 8 8 8 8 9 9 9 9 9 9 8 8 8 8 7 7 7 7 7 8 8 8 8 8 8 8 8 8
9 9 9 9 9 9 8 8 8 8 8 8 8 8 8 8 7 7 8 8 8 8 8 8 8 8 7 7 7 7 7 7 7 7 7 7 7 7 8 8 8 8 8 8

GEFSNGP_850_meantemp_072.txt.gz
Temperature
28 28 28 28 28 27 27 27 27 27 27 28 28 27 26 25 23 22 21 20 19 19 18 17 17 16 15 14 14 13 12 12 12 11 11 10 10 10 10 10 9 9 9 9
27 28 28 27 28 28 27 27 27 27 27 28 26 25 24 24 23 22 21 21 20 19 18 17 17 16 15 14 13 13 12 12 12 11 11 10 10 10 10 9 9 9 9 9
27 28 27 27 28 28 28 28 27 27 28 27 26 25 24 23 23 22 22 21 20 19 18 17 17 16 15 14 13 13 12 12 11 11 11 10 10 10 10 9 9 9 9 9
27 26 25 27 29 28 28 28 28 28 27 27 26 25 24 23 23 22 22 21 20 19 18 17 17 16 15 14 13 13 12 12 11 11 10 10 10 10 9 9 9 9 9 9
26 26 26 28 28 28 27 27 28 28 27 27 25 24 24 23 22 22 21 21 20 19 18 17 17 16 15 14 13 13 12 12 11 11 10 10 10 10 10 9 9 9 9 9
26 25 25 27 28 27 27 27 28 28 27 26 25 26 26 24 23 22 21 20 19 19 18 17 16 16 15 14 13 13 12 12 11 11 10 10 10 10 10 9 9 9 9 9
25 25 26 27 27 26 26 26 27 27 27 26 26 26 25 24 23 22 21 20 19 19 18 17 16 16 15 14 14 13 12 12 11 11 10 10 10 10 10 9 9 9 9 9
25 25 25 26 26 26 25 25 25 26 26 25 25 25 24 23 22 21 21 20 19 19 18 17 16 16 15 14 13 13 12 11 11 10 10 10 10 10 9 9 9 9 9 8
26 26 24 24 24 23 22 23 23 24 24 24 24 24 23 23 22 21 21 20 19 19 18 17 16 16 15 14 13 13 12 12 11 11 10 10 10 10 10 9 9 9 9 9
25 25 24 22 21 20 20 21 21 22 22 23 23 23 22 22 21 20 20 20 19 18 18 17 16 16 15 14 14 13 12 12 11 11 11 10 10 10 10 10 10 10 9 9
24 24 23 22 19 18 19 19 20 20 21 21 21 21 21 21 20 20 19 19 18 18 17 17 16 15 15 14 14 13 13 12 11 11 11 10 10 10 10 10 9 9 9 9
23 20 21 19 17 17 18 18 18 19 19 19 20 20 20 20 19 19 18 18 18 17 17 17 16 15 15 14 14 13 12 12 11 11 11 11 11 11 11 10 10 9 9 9
18 17 17 17 16 16 17 17 17 17 17 18 18 18 18 18 17 17 17 17 17 17 17 16 15 15 14 14 14 13 12 12 11 11 11 11 11 11 11 11 10 10 9 9
16 16 16 16 16 16 16 17 17 16 16 16 16 16 16 16 16 16 16 16 16 16 16 15 15 14 14 13 13 13 12 12 11 11 11 11 11 11 11 10 10 10 10 9
15 15 15 15 15 15 15 16 16 16 15 15 15 15 15 15 15 15 15 15 15 15 15 15 14 14 13 13 13 13 12 12 11 11 11 11 11 11 11 10 10 10 10 9
15 15 15 14 14 14 15 15 15 15 14 14 14 14 14 14 14 14 14 14 14 14 14 14 14 13 13 13 12 12 12 12 12 11 11 11 11 11 11 11 10 10 9 9
14 14 14 13 13 13 13 13 13 13 13 13 13 13 13 13 13 13 13 13 13 13 13 13 13 13 12 12 12 12 12 12 11 11 11 11 11 11 11 10 10 10 9 9
12 12 12 12 12 12 13 13 12 12 12 12 12 12 12 12 12 12 12 12 12 12 12 12 12 12 12 11 11 11 11 11 11 11 11 11 11 10 10 10 10 10 9 9
12 12 12 12 11 11 11 11 11 11 11 11 11 11 11 11 11 11 11 11 11 11 11 11 11 11 11 11 11 11 11 11 11 11 11 11 10 10 10 10 10 10 9 9
11 11 11 11 11 11 11 11 11 11 11 11 10 10 10 10 10 10 10 10 11 10 10 10 10 10 10 10 10 10 10 11 11 11 11 11 10 10 10 10 10 10 9 9
11 11 11 11 11 11 10 10 10 10 10 10 10 10 10 10 10 10 10 10 10 9 9 9 9 9 10 9 9 10 10 10 10 11 11 10 10 10 10 9 9 9 9 9
11 11 11 10 10 10 10 10 10 10 10 10 10 10 9 9 9 9 9 9 9 9 8 9 9 9 9 9 9 9 10 10 10 10 10 10 9 9 9 9 9 9 9 8
10 10 10 10 10 10 9 10 10 10 9 9 9 9 9 9 9 9 9 9 9 8 8 8 8 8 8 8 8 9 9 9 9 9 9 9 9 9 9 9 8 8 8 8
10 10 9 9 9 9 9 10 9 9 9 9 9 9 9 9 9 9 9 8 8 7 7 7 7 7 7 7 8 8 8 8 8 8 8 8 8 8 8 8 8 8 8 8
9 9 9 9 9 9 9 9 9 9 9 9 9 9 9 9 9 9 8 8 8 7 7 7 7 7 7 7 7 7 7 7 8 8 7 8 8 7 7 8 7 8 8 8
9 9 9 9 8 8 9 9 9 9 9 9 9 9 9 9 9 8 8 8 8 7 7 7 7 6 6 6 6 6 6 7 7 7 7 7 7 7 7 7 7 7 7 7
9 9 9 9 9 9 9 9 9 9 9 9 9 8 8 8 8 8 8 8 7 7 7 6 6 6 6 6 6 6 6 6 6 6 6 6 6 6 6 7 7 7 7 7

GEFSNGP_850_meantemp_078.txt.gz
Temperature
28 28 27 27 28 29 29 29 28 28 28 28 29 29 29 28 28 27 26 25 24 23 21 21 20 19 18 18 17 16 16 15 15 14 14 13 13 12 12 12 12 12 11 11
28 29 29 29 29 30 30 30 29 29 29 29 29 29 28 28 27 27 26 25 24 22 21 20 20 19 18 17 17 16 15 15 15 14 14 13 13 13 12 12 12 12 11 11
26 28 28 27 29 30 30 30 30 29 29 29 29 29 28 27 27 26 26 25 24 22 21 20 20 19 18 17 17 16 15 15 15 14 14 13 13 13 12 12 12 12 12 11
27 27 26 28 30 30 30 30 30 30 30 30 29 28 28 27 26 26 25 25 24 23 22 20 20 19 18 17 17 16 16 15 15 14 14 14 13 13 12 12 12 12 12 11
26 26 27 28 28 27 27 28 30 30 30 29 29 28 28 27 26 25 25 24 24 23 22 21 20 19 18 17 17 16 16 16 15 15 14 14 13 13 13 12 12 12 11 11
26 26 25 26 26 26 26 25 27 28 28 29 28 27 27 26 26 25 25 24 23 22 22 21 20 19 18 18 17 17 16 16 15 15 15 14 14 13 13 12 12 12 11 11
26 25 26 25 25 25 23 22 24 26 27 27 27 27 26 26 26 25 24 24 23 22 22 21 20 19 18 18 17 17 16 16 15 15 15 14 14 13 13 12 12 12 12 12
24 23 22 22 23 22 20 21 23 24 25 26 26 26 26 26 25 24 24 23 22 22 21 20 20 19 18 18 17 17 16 16 15 15 15 14 13 13 13 12 12 12 12 12
24 22 20 19 19 20 21 21 23 23 24 24 25 25 25 24 23 23 23 22 22 21 21 20 19 19 18 17 17 16 16 16 15 15 15 14 13 13 12 12 12 12 12 12
23 21 19 20 20 20 21 22 22 22 23 23 23 23 23 22 22 22 22 21 21 20 20 19 18 18 18 17 16 16 16 15 15 15 14 14 13 13 13 12 12 12 12 12
22 21 20 20 21 21 21 21 21 21 21 21 21 21 21 20 20 20 20 20 20 20 19 18 18 17 17 16 16 16 15 15 15 14 14 14 14 13 13 13 13 13 12 12
22 22 22 20 21 21 21 21 20 20 20 19 19 19 19 19 19 19 19 19 18 18 18 18 17 17 16 16 15 15 15 15 14 14 14 14 14 14 14 14 13 13 13 12
22 22 21 21 21 21 21 20 20 19 19 18 18 18 17 17 17 17 17 17 17 17 17 17 16 16 15 15 15 14 14 14 14 14 14 14 14 14 14 14 14 13 13 13
20 20 20 20 20 19 20 19 19 18 18 17 17 17 16 16 16 16 16 15 15 15 15 15 15 15 15 14 14 14 14 13 13 13 13 13 13 13 13 13 13 13 13 13
20 19 19 19 18 18 18 18 18 17 17 16 16 16 15 15 15 15 15 15 14 14 14 14 14 14 14 13 13 13 13 13 13 13 13 13 13 13 13 13 13 13 13 13
18 18 18 17 17 17 17 17 16 16 16 16 15 15 15 14 14 14 14 13 13 13 13 13 13 13 12 12 12 12 12 12 12 12 13 13 13 13 13 13 13 13 13 12
18 17 17 16 16 16 16 16 15 15 15 15 15 14 14 14 13 13 13 12 12 12 12 12 12 12 11 11 11 11 12 12 12 12 12 13 13 13 13 13 13 13 12 12
16 16 15 15 15 15 15 15 15 14 14 14 14 14 13 13 12 12 12 11 12 12 12 11 11 11 11 11 11 11 11 11 12 12 12 12 13 13 13 13 12 12 12 12
15 15 15 15 15 14 14 14 14 14 13 13 13 13 12 12 12 11 11 11 11 11 11 11 10 10 10 10 10 10 10 11 11 11 12 12 12 12 12 12 12 12 12 11
15 14 14 14 14 14 14 14 13 13 13 13 12 12 12 12 11 11 11 11 11 11 11 10 10 10 10 10 10 10 10 10 10 11 11 11 12 12 12 12 12 11 11 11
14 14 14 14 14 13 13 13 13 12 12 12 12 12 12 11 11 11 11 11 11 11 10 10 10 10 10 9 9 9 9 9 10 10 10 11 11 11 11 11 11 11 11 10
13 13 13 13 13 12 12 12 12 12 12 12 12 11 11 11 11 11 11 11 11 11 10 10 10 10 9 9 8 8 9 9 9 9 10 10 10 10 10 10 10 10 10 10
12 12 12 12 12 12 12 12 12 12 12 11 11 11 11 11 11 11 11 11 11 10 10 10 9 9 9 8 8 8 8 8 8 8 9 9 9 9 10 10 10 10 9 9
12 12 11 11 11 11 11 11 11 11 11 11 11 11 11 11 11 11 11 11 10 10 10 9 9 9 8 8 8 8 8 7 7 8 8 8 8 9 9 9 9 9 9 9
11 11 11 11 11 11 11 11 11 11 11 11 11 11 11 11 11 11 10 10 10 10 9 9 9 8 8 8 7 7 7 7 7 7 7 7 7 7 8 8 8 8 8 8
11 11 11 11 11 11 11 11 11 11 11 11 11 11 10 10 10 10 10 9 9 9 9 8 8 8 7 7 6 6 6 6 6 6 6 6 6 7 7 7 7 7 7 7
11 11 11 11 11 11 10 10 10 10 10 10 9 9 9 9 9 9 9 9 8 8 8 8 7 7 6 6 6 5 5 5 5 5 5 5 6 6 6 6 6 6 7 7

GEFSNGP_850_meantemp_084.txt.gz
Temperature
21 22 22 23 24 24 22 21 20 21 21 21 21 21 23 24 24 24 23 23 23 23 22 22 22 21 20 20 19 19 18 17 17 16 16 15 15 15 14 14 13 13 13 13
22 23 23 23 24 24 24 23 22 22 22 21 22 23 23 24 24 23 23 23 23 23 23 22 22 21 21 20 19 19 18 18 17 17 16 16 15 15 14 14 13 13 13 13
19 21 22 21 22 23 22 20 20 20 20 20 20 21 23 24 24 24 24 24 23 23 23 23 22 22 21 20 20 19 18 18 17 17 16 16 15 15 14 14 14 13 13 13
18 20 21 21 21 22 21 19 19 19 19 19 20 23 24 25 25 25 25 24 24 24 23 23 22 22 21 20 20 19 18 18 17 17 16 16 15 15 15 14 14 14 13 13
17 18 20 21 20 20 20 18 17 18 18 19 21 22 22 23 24 25 25 25 25 24 24 23 22 22 21 20 20 19 19 18 18 17 16 16 16 15 15 15 14 14 13 13
17 18 19 20 20 20 20 18 17 17 17 18 19 18 19 22 23 24 24 24 24 24 23 23 22 22 21 21 20 19 19 19 18 17 17 16 16 16 15 15 14 14 14 13
16 17 18 18 18 19 19 18 16 17 17 18 16 17 19 21 22 23 23 23 24 23 23 23 22 21 21 20 20 20 19 18 18 17 17 16 16 15 15 15 14 14 14 14
15 16 17 17 17 17 16 16 16 17 18 18 18 18 19 20 21 21 22 22 22 22 22 22 22 21 21 20 20 19 18 18 17 17 16 16 16 15 15 15 14 14 14 14
15 15 16 16 16 17 17 17 17 18 18 18 18 17 18 19 19 20 20 21 21 21 21 21 20 20 20 20 19 18 18 17 17 16 16 15 15 15 15 14 14 14 14 14
14 15 15 16 17 18 18 18 18 18 18 18 17 17 17 18 18 18 19 19 19 20 20 19 19 19 19 19 18 17 17 17 16 16 15 15 15 14 14 14 14 14 13 13
14 15 15 16 17 18 18 18 17 17 17 17 16 16 16 16 17 17 17 18 18 18 18 18 18 18 17 17 17 17 16 16 15 15 15 14 14 14 13 13 13 13 13 13
15 15 14 16 18 18 17 17 17 17 16 16 16 16 16 16 16 16 16 16 16 16 16 16 16 16 16 16 15 15 15 15 14 14 14 13 13 13 13 13 13 13 13 13
18 17 17 17 18 17 17 17 16 16 16 15 15 15 15 15 15 15 15 15 15 15 15 15 15 14 14 14 14 14 14 13 13 13 13 13 12 12 12 13 13 13 13 13
18 17 16 16 16 16 16 16 16 15 15 15 15 15 15 14 14 14 14 14 14 13 13 13 13 13 13 13 13 13 12 12 12 12 12 12 12 12 12 12 12 12 12 12
17 17 16 16 16 16 16 16 15 15 15 14 14 14 14 14 13 13 13 13 13 12 12 12 12 12 12 12 12 12 12 11 11 11 11 11 11 11 11 11 11 11 12 12
16 16 16 15 15 15 15 15 14 14 14 14 14 13 13 13 13 12 12 12 12 12 11 11 11 11 11 11 11 11 11 11 10 10 10 10 10 10 10 10 11 11 11 11
15 15 15 15 15 15 14 14 14 14 14 13 13 13 13 12 12 12 11 11 11 11 11 11 11 11 11 10 10 10 10 10 10 10 10 10 9 10 10 10 10 10 10 11
15 15 15 14 14 14 14 14 13 13 13 13 12 12 12 12 11 11 11 11 11 11 11 10 10 10 10 10 10 10 10 9 9 9 9 9 9 9 9 9 9 9 10 10
14 14 14 14 14 13 13 13 13 12 12 12 12 12 11 11 11 11 11 11 11 11 10 10 10 10 10 10 10 10 9 9 9 9 9 8 8 8 9 9 9 9 9 9
14 14 13 13 13 13 12 12 12 12 12 11 11 11 11 11 11 11 11 11 11 10 10 10 10 10 10 10 10 9 9 9 8 8 8 8 8 8 8 8 8 8 8 9
13 13 12 12 12 12 12 11 11 11 11 11 11 11 11 11 11 11 11 11 10 10 10 10 10 10 10 9 9 9 9 8 8 8 8 7 7 7 7 8 8 8 8 8
12 12 12 11 11 11 11 11 11 11 11 11 11 11 11 11 11 11 10 10 10 10 10 10 9 9 9 9 9 8 8 8 7 7 7 7 7 7 7 7 7 7 7 8
11 11 11 11 11 11 11 11 11 11 10 10 10 10 10 10 10 10 10 10 10 9 9 9 9 9 9 8 8 8 8 7 7 7 6 6 6 6 6 6 7 7 7 7
11 11 11 11 11 10 10 10 10 10 10 10 10 10 10 9 9 9 9 9 9 9 9 8 8 8 8 8 8 7 7 7 6 6 6 6 6 5 5 6 6 6 6 7
11 11 10 10 10 10 10 10 10 9 9 9 9 9 9 9 8 8 8 8 8 8 8 8 8 7 7 7 7 7 6 6 6 5 5 5 5 5 5 5 5 5 6 6
10 10 10 10 10 9 9 9 9 9 9 8 8 8 8 8 8 8 7 7 7 7 7 7 7 7 6 6 6 6 6 5 5 5 5 4 4 4 4 5 5 5 5 6
9 9 9 9 9 9 9 8 8 8 8 7 7 7 7 7 7 7 7 7 6 6 6 6 6 6 6 5 5 5 5 4 4 4 4 4 4 4 4 4 4 5 5 5